Powrót do katalogu

COSMOS 1428

AktywnyMilitariaPO
NORAD 13757·PAYLOAD·🇷🇺 Russia

Wystrzelony Jan 12, 1983 z Plesetsk Cosmodrome

Loading…

Następne Przeloty (najbliższe 24 godziny)

TLE

ŚwieżeSource: Space-Track

Epoka: Sep 14, 2026, 03:36 UTC

1 13757U 83001A   26257.15005424  .00000060  00000-0  45316-4 0  9997
2 13757  82.9159 335.3232 0034434 356.3097  24.3904 13.77095210193944

Śledź COSMOS 1428 w czasie rzeczywistym z AllMySat

Download on the App Store